Home   Weather   Port Said   Past weeks

Flag for Egypt Past Weather in Port Said, Egypt — Yesterday and Last 2 Weeks

Now
81 °F

Clear.


Feels Like: 83 °F
Forecast: 73 / 82 °F
Wind: 13 mph from North

Location: Port Said Airport

Current Time: Jun 22, 2017 at 8:37:49 pm

Latest Report: Jun 22, 2017 at 7:00 pm


Visibility: 10 mi

Pressure: 29.89 "Hg

Humidity: 66%

Dew Point: 68 °F

Location of Port SaidLocation

Past Weather in Port Said — Graph

°F

Port Said Temperature Yesterday

Maximum temperature yesterday: 82 °F (at 1:00 pm)
Minimum temperature yesterday: 73 °F (at 5:00 am)
Average temperature yesterday: 78 °F

High & Low Weather Summary for the Past Weeks

 TemperatureHumidityPressure
High86 °F (Jun 8, 10:00 am)94% (Jun 17, 11:00 pm)29.98 "Hg (Jun 17, 11:00 pm)
Low72 °F (Jun 13, 4:00 am)38% (Jun 8, 10:00 am)29.71 "Hg (Jun 9, 6:00 am)
Average78 °F73%29.85 "Hg
* Reported Jun 7 7:00 pm — Jun 22 7:00 pm, Port Said. Weather by CustomWeather, © 2017

Note: Actual official high and low records may vary slightly from our data, if they occured in-between our weather recording intervals... More about our weather records

Advertising

Port Said Weather History for the Previous 24 Hours

Scroll right to see more
 ConditionsComfort  
Time TempWeatherWind HumidityBarometerVisibility
7:00 pm
Thu, Jun 22
81 °FClear.13 mph66%29.89 "Hg10 mi
6:00 pm81 °FSunny.12 mph66%29.89 "Hg10 mi
5:00 pm81 °FSunny.14 mph70%29.92 "Hg10 mi
4:00 pm81 °FPassing clouds.12 mph66%29.92 "HgN/A
3:00 pm81 °FPassing clouds.12 mph70%29.92 "HgN/A
2:00 pm82 °FPassing clouds.10 mph66%29.92 "HgN/A
1:00 pm82 °FSunny.9 mph62%29.92 "Hg10 mi
12:00 pm81 °FSunny.9 mph66%29.92 "Hg10 mi
11:00 am81 °FPassing clouds.7 mph62%29.95 "HgN/A
10:00 am81 °FPassing clouds.8 mph62%29.95 "HgN/A
9:00 am79 °FPassing clouds.8 mph65%29.92 "HgN/A
8:00 am79 °FPassing clouds.6 mph65%29.92 "HgN/A
7:00 am75 °FScattered clouds.13 mph78%29.86 "HgN/A
6:00 am73 °FPassing clouds.7 mph78%29.89 "HgN/A
5:00 am73 °FPassing clouds.8 mph78%29.89 "HgN/A
4:00 am75 °FPassing clouds.9 mph78%29.89 "HgN/A
3:00 am75 °FPassing clouds.12 mph78%29.86 "HgN/A
2:00 am75 °FPassing clouds.10 mph78%29.86 "HgN/A
1:00 am75 °FPassing clouds.8 mph78%29.89 "HgN/A
12:00 am77 °FClear.7 mph74%29.89 "Hg10 mi
11:00 pm
Wed, Jun 21
77 °FClear.9 mph74%29.89 "Hg10 mi
10:00 pm77 °FClear.10 mph74%29.89 "Hg10 mi
9:00 pm77 °FClear.13 mph79%29.89 "Hg10 mi
8:00 pm77 °FClear.12 mph79%29.89 "Hg10 mi
Weather by CustomWeather, © 2017

See weather overviewHow to use our weather pages